Regional Weather Roundup
Issued by NWS

Home | Current Version | Previous Version | Text Only | Print | Product List | Glossary Off
Versions: 1 2 3 4 5 6 7 8 9 10 11 12 13 14 15 16 17 18 19 20 21 22 23 24 25 26 27 28 29 30 31 32 33 34 35 36 37 38 39 40 41 42 43 44 45 46 47 48 49 50

000
ASUS43 KDTX 181810
RWRMI
MICHIGAN HOURLY REGIONAL WEATHER ROUNDUP
NATIONAL WEATHER SERVICE DETROIT/PONTIAC MI
100 PM EST MON DEC 18 2017

NOTE: "FAIR" INDICATES FEW OR NO CLOUDS BELOW 12,000 FEET WITH NO
SIGNIFICANT WEATHER AND/OR OBSTRUCTION TO VISIBILITY.

MIZ047>049-052>055-059>063-066>070-074>076-081>083-181900-
SOUTHEAST LOWER MICHIGAN

CITY           SKY/WX    TMP DP  RH WIND       PRES   REMARKS
ALMA           FOG       38  38 100 SW7       29.83F VSB 3/4 WCI  32
6HR MIN TEMP:  33; 6HR MAX TEMP:  38;

ANN ARBOR      FOG       38  38 100 S10       29.89F VSB 1/2 WCI  31
BAD AXE        LGT SNOW  35  35  99 SW6       29.82F VSB 1   WCI  30
6HR MIN TEMP:  31; 6HR MAX TEMP:  35;

CARO           CLOUDY    37  37  98 SW9       29.82F FOG     WCI  31
DETROIT CITY   CLOUDY    39  37  92 SW14      29.89F FOG     WCI  31
6HR MIN TEMP:  37; 6HR MAX TEMP:  39; 6HR PCP: TRACE;

DETROIT        CLOUDY    41  38  89 SW14      29.90F FOG
6HR MIN TEMP:  38; 6HR MAX TEMP:  41; 6HR PCP: TRACE;

FLINT          CLOUDY    38  37  97 SW13      29.85F FOG     WCI  30
6HR MIN TEMP:  36; 6HR MAX TEMP:  38; 6HR PCP:  0.07;

GROSSE ILE     CLOUDY    40  38  92 SW12G18   29.90F FOG     WCI  33
6HR MIN TEMP:  34; 6HR MAX TEMP:  40;

HILLSDALE      FOG       37  37 100 SW8       29.88F VSB 1/2 WCI  31
HOWELL         CLOUDY    38  38 100 SW8       29.86F FOG     WCI  33
6HR MIN TEMP:  37; 6HR MAX TEMP:  38;


CITY           SKY/WX    TMP DP  RH WIND       PRES   REMARKS
JACKSON        CLOUDY    40  38  93 SW14      29.87F FOG     WCI  32
6HR MIN TEMP:  38; 6HR MAX TEMP:  40; 6HR PCP:  0.01;

LAMBERTVILLE   CLOUDY    42  40  91 SW9       29.92F
6HR MIN TEMP:  37; 6HR MAX TEMP:  42;

LANSING        CLOUDY    39  39 100 SW13      29.86F FOG     WCI  31
6HR MIN TEMP:  37; 6HR MAX TEMP:  39; 6HR PCP:  0.02;

LAPEER         CLOUDY    38  38  99 SW9       29.84F FOG     WCI  32
6HR MIN TEMP:  36; 6HR MAX TEMP:  38; 6HR PCP:  0.01;

MASON          CLOUDY    40  37  89 SW8       29.86F FOG     WCI  34
6HR MIN TEMP:  37; 6HR MAX TEMP:  40;

MONROE         CLOUDY    40  38  91 SW12G17   29.91S FOG     WCI  33
6HR MIN TEMP:  37; 6HR MAX TEMP:  40;

MT. CLEMENS    CLOUDY    39  39 100 SW10      29.86F FOG     WCI  32
6HR MIN TEMP:  37; 6HR MAX TEMP:  39; 6HR PCP:  0.01;

PONTIAC        LGT RAIN  38  38 100 SW9       29.85F VSB 1   WCI  31
6HR MIN TEMP:  36; 6HR MAX TEMP:  38; 6HR PCP:  0.37;

PORT HOPE        N/A     35  33  92 VRB3      29.80F
6HR MIN TEMP:  30; 6HR MAX TEMP:  35; 6HR PCP:  0.04;

PORT HURON     LGT RAIN  37  36  93 SW7       29.86F WCI  32
TRI CITIES     CLOUDY    37  37 100 SW10      29.83F FOG     WCI  30
6HR MIN TEMP:  32; 6HR MAX TEMP:  37; 6HR PCP:  0.04;

MIDLAND        DRIZZLE   36  36 100 SW6       29.82F WCI  32
6HR MIN TEMP:  29; 6HR MAX TEMP:  36;

TROY           LGT RAIN  39  37  94 SW9       29.89F WCI  33
SAGINAW HB     CLOUDY    36  36 100 SW9       29.83S FOG     WCI  29
$$
MIZ043>046-050>051-056>058-064>065-071>073-077>080-181900-
SOUTHWEST LOWER MICHIGAN

CITY           SKY/WX    TMP DP  RH WIND       PRES   REMARKS
BATTLE CREEK   CLOUDY    39  39 100 SW14      29.87F FOG     WCI  31
6HR MIN TEMP:  37; 6HR MAX TEMP:  39; 6HR PCP:  0.01;

BENTON HARBOR  CLOUDY    43  40  89 SW15G26   29.89F FOG
6HR MIN TEMP:  41; 6HR MAX TEMP:  43; 6HR PCP:  0.02;

BIG RAPIDS     FOG       34  33  96 W5        29.82S VSB 1/4 WCI  30
6HR MIN TEMP:  28; 6HR MAX TEMP:  34; 6HR PCP:  0.01;

COLDWATER      LGT RAIN  41  41 100 SW10      29.90F
6HR MIN TEMP:  38; 6HR MAX TEMP:  41;

FREMONT          N/A    N/A N/A N/A MISG        N/A
HOLLAND        CLOUDY    41  37  86 W21G31    29.86F
6HR MIN TEMP:  39; 6HR MAX TEMP:  41; 6HR PCP:  0.03;

GRAND RAPIDS   CLOUDY    39  37  92 W10       29.85F FOG     WCI  32
6HR MIN TEMP:  37; 6HR MAX TEMP:  39; 6HR PCP:  0.05;

IONIA          CLOUDY    38  37  99 SW12      29.84F FOG     WCI  30
6HR MIN TEMP:  35; 6HR MAX TEMP:  38;

KALAMAZOO      LGT RAIN  41  39  93 SW10      29.88F FOG
6HR MIN TEMP:  38; 6HR MAX TEMP:  41; 6HR PCP: TRACE;

LUDINGTON      CLOUDY    36  32  87 SW12      29.82F FOG     WCI  27
6HR MIN TEMP:  31; 6HR MAX TEMP:  36; 6HR PCP:  0.12;

MARSHALL       LGT RAIN  39  39  98 SW9G16    29.87F WCI  33
6HR MIN TEMP:  37; 6HR MAX TEMP:  39;

MOUNT PLEASANT FOG       37  35  94 SW5       29.81F VSB 1   WCI  33
6HR MIN TEMP:  29; 6HR MAX TEMP:  37; 6HR PCP:  0.01;

MUSKEGON       CLOUDY    40  35  83 W10       29.85F HAZE    WCI  33
6HR MIN TEMP:  34; 6HR MAX TEMP:  40; 6HR PCP:  0.01;

SOUTH HAVEN    LGT RAIN  43  41  94 W10       29.89S
$$
MIZ016>042-181900-
NORTHERN LOWER MICHIGAN

CITY           SKY/WX    TMP DP  RH WIND       PRES   REMARKS
ALPENA         LGT SNOW  31  31 100 SW3       29.79F FOG
6HR MIN TEMP:  28; 6HR MAX TEMP:  31; 6HR PCP: TRACE;

BEAVER ISLAND  CLOUDY    35  32  88 SW12      29.74F FOG     WCI  27
6HR MIN TEMP:  33; 6HR MAX TEMP:  36;

BELLAIRE       CLOUDY    33  33 100 SW6       29.79F FOG     WCI  28
6HR MIN TEMP:  29; 6HR MAX TEMP:  33;

CADILLAC       FOG       32  31  98 SW9       29.78F VSB 1   WCI  24
CHARLEVOIX     CLOUDY    34  34 100 S8        29.79F FOG     WCI  27
6HR MIN TEMP:  30; 6HR MAX TEMP:  34;

FRANKFORT      CLOUDY    35  33  92 SW7       29.80F FOG     WCI  29
GAYLORD        CLOUDY    31  29  92 SW10      29.75F FOG     WCI  22
6HR MIN TEMP:  25; 6HR MAX TEMP:  31;

GRAYLING       CLOUDY    32  30  93 SW8G17    29.79S FOG     WCI  25
6HR MIN TEMP:  26; 6HR MAX TEMP:  32;

HARBOR SPRINGS FOG       33  32  98 SW9G17    29.77F VSB 3/4 WCI  25
HOUGHTON LAKE  CLOUDY    31  30  96 CALM      29.78F FOG
6HR MIN TEMP:  26; 6HR MAX TEMP:  31; 6HR PCP:  0.01;

MANISTEE       CLOUDY    36  33  89 SW7       29.80F FOG     WCI  30
OSCODA         LGT SNOW  30  29  96 MISG      29.79F
6HR MIN TEMP:  28; 6HR MAX TEMP:  30;

PELLSTON       CLOUDY    33  32  96 SW7       29.76F FOG     WCI  27
6HR MIN TEMP:  27; 6HR MAX TEMP:  33;

ROGERS CITY    CLOUDY    32  30  90 S7        29.78F FOG     WCI  26
TRAVERSE CITY  CLOUDY    34  31  88 SW8       29.79F FOG     WCI  27
6HR MIN TEMP:  30; 6HR MAX TEMP:  35;

$$
MIZ007>008-015-181900-
EASTERN UPPER MICHIGAN

CITY           SKY/WX    TMP DP  RH WIND       PRES   REMARKS
MACKINAC ISLAN FOG       33  33 100 S10       29.74F VSB 1   WCI  25
6HR MIN TEMP:  30; 6HR MAX TEMP:  33;

NEWBERRY       CLOUDY    30  29  96 S10       29.71F FOG     WCI  21
6HR MIN TEMP:  25; 6HR MAX TEMP:  30;

S. S. MARIE    FOG       27  25  92 E3        29.73F VSB 1
6HR MIN TEMP:  22; 6HR MAX TEMP:  27;

MUNISING         N/A     30  28  92 S9        29.72F WCI  22
6HR MIN TEMP:  25; 6HR MAX TEMP:  30;

$$
MIZ004>006-011>014-085-181900-
CENTRAL UPPER MICHIGAN

CITY           SKY/WX    TMP DP  RH WIND       PRES   REMARKS
MANISTIQUE     CLOUDY    31  26  81 SW6       29.73F HAZE    WCI  25
6HR MIN TEMP:  29; 6HR MAX TEMP:  31;

ESCANABA       CLOUDY    32  27  81 SW8       29.75F WCI  25
6HR MIN TEMP:  26; 6HR MAX TEMP:  32; 6HR PCP: TRACE;

MENOMINEE      CLOUDY    32  28  85 W7        29.78F WCI  26
6HR MIN TEMP:  27; 6HR MAX TEMP:  33;

SAWYER-GWINN   CLOUDY    28  27  93 SW9       29.70F FOG     WCI  20
$$
MIZ001>003-009>011-084-181900-
WESTERN UPPER MICHIGAN

CITY           SKY/WX    TMP DP  RH WIND       PRES   REMARKS
IRON MOUNTAIN  PTSUNNY   32  27  81 W7        29.70F WCI  26
6HR MIN TEMP:  26; 6HR MAX TEMP:  32;

HOUGHTON       PTSUNNY   30  24  78 S5        29.63F WCI  25
6HR MIN TEMP:  25; 6HR MAX TEMP:  30;

COPPER HARBOR    N/A     32  25  75 VRB3      29.65F
6HR MIN TEMP:  27; 6HR MAX TEMP:  32;

IRONWOOD       PTSUNNY   32  26  78 SW13      29.67F WCI  22
6HR MIN TEMP:  26; 6HR MAX TEMP:  33;

$$

ABBREVIATIONS USED IN REMARKS
   TC - TEMPERATURE IN CELSIUS
  WCI - WIND CHILL INDEX
   HX - HEAT INDEX
  VSB - VISIBILITY





USA.gov is the U.S. government's official web portal to all federal, state and local government web resources and services.